Time,TemperatureF,DewpointF,PressureIn,WindDirection,WindDirectionDegrees,WindSpeedMPH,WindSpeedGustMPH,Humidity,HourlyPrecipIn,Conditions,Clouds,dailyrainin,SoftwareType,DateUTC
2013-03-23 00:00:00,45.5,34.0,30.09,North,0,0.0,2.0,64,0.00,,---,0.00,VWS V14.01,2013-03-23 07:00:00,
2013-03-23 00:05:00,45.3,33.5,30.08,North,0,4.0,5.0,63,0.00,,---,0.00,VWS V14.01,2013-03-23 07:05:00,
2013-03-23 00:10:00,45.1,33.7,30.09,North,0,2.0,5.0,64,0.00,,---,0.00,VWS V14.01,2013-03-23 07:10:00,
2013-03-23 00:16:00,44.9,33.5,30.09,North,0,0.0,5.0,64,0.00,,---,0.00,VWS V14.01,2013-03-23 07:16:00,
2013-03-23 00:21:00,44.8,33.4,30.09,North,0,2.0,5.0,64,0.00,,---,0.00,VWS V14.01,2013-03-23 07:21:00,
2013-03-23 00:26:00,44.6,33.6,30.07,North,0,0.0,5.0,65,0.00,,---,0.00,VWS V14.01,2013-03-23 07:26:00,
2013-03-23 00:31:00,44.5,33.5,30.08,North,0,0.0,0.0,65,0.00,,---,0.00,VWS V14.01,2013-03-23 07:31:00,
2013-03-23 00:36:00,44.5,33.5,30.08,North,0,0.0,1.0,65,0.00,,---,0.00,VWS V14.01,2013-03-23 07:36:00,
2013-03-23 00:41:00,44.2,33.2,30.07,North,0,0.0,2.0,65,0.00,,---,0.00,VWS V14.01,2013-03-23 07:41:00,
2013-03-23 00:46:00,44.0,33.0,30.08,North,0,0.0,2.0,65,0.00,,---,0.00,VWS V14.01,2013-03-23 07:46:00,
2013-03-23 00:51:00,43.9,32.9,30.08,North,0,0.0,2.0,65,0.00,,---,0.00,VWS V14.01,2013-03-23 07:51:00,
2013-03-23 00:57:00,43.6,33.4,30.08,North,0,0.0,2.0,67,0.00,,---,0.00,VWS V14.01,2013-03-23 07:57:00,
2013-03-23 01:02:00,43.3,33.1,30.09,North,0,0.0,1.0,67,0.00,,---,0.00,VWS V14.01,2013-03-23 08:02:00,
2013-03-23 01:07:00,43.0,32.8,30.09,North,0,0.0,1.0,67,0.00,,---,0.00,VWS V14.01,2013-03-23 08:07:00,
2013-03-23 01:12:00,42.9,33.1,30.06,North,0,0.0,1.0,68,0.00,,---,0.00,VWS V14.01,2013-03-23 08:12:00,
2013-03-23 01:17:00,42.7,32.5,30.10,North,0,0.0,1.0,67,0.00,,---,0.00,VWS V14.01,2013-03-23 08:17:00,
2013-03-23 01:22:00,42.8,33.0,30.09,North,0,0.0,2.0,68,0.00,,---,0.00,VWS V14.01,2013-03-23 08:22:00,
2013-03-23 01:27:00,42.6,32.8,30.09,North,0,0.0,2.0,68,0.00,,---,0.00,VWS V14.01,2013-03-23 08:27:00,
2013-03-23 01:33:00,42.6,32.4,30.08,North,0,2.0,3.0,67,0.00,,---,0.00,VWS V14.01,2013-03-23 08:33:00,
2013-03-23 01:38:00,42.4,32.6,30.08,North,0,0.0,3.0,68,0.00,,---,0.00,VWS V14.01,2013-03-23 08:38:00,
2013-03-23 01:43:00,42.4,32.6,30.09,North,0,0.0,3.0,68,0.00,,---,0.00,VWS V14.01,2013-03-23 08:43:00,
2013-03-23 01:48:00,42.4,32.6,30.09,North,0,0.0,3.0,68,0.00,,---,0.00,VWS V14.01,2013-03-23 08:48:00,
2013-03-23 01:53:00,42.3,32.9,30.08,North,0,2.0,3.0,69,0.00,,---,0.00,VWS V14.01,2013-03-23 08:53:00,
2013-03-23 01:58:00,42.0,32.2,30.07,North,0,0.0,3.0,68,0.00,,---,0.00,VWS V14.01,2013-03-23 08:58:00,
2013-03-23 02:03:00,41.9,32.5,30.09,North,0,0.0,1.0,69,0.00,,---,0.00,VWS V14.01,2013-03-23 09:03:00,
2013-03-23 02:08:00,41.7,32.7,30.08,North,0,1.0,1.0,70,0.00,,---,0.00,VWS V14.01,2013-03-23 09:08:00,
2013-03-23 02:13:00,41.8,32.4,30.10,North,0,0.0,2.0,69,0.00,,---,0.00,VWS V14.01,2013-03-23 09:13:00,
2013-03-23 02:18:00,41.7,32.7,30.10,North,0,1.0,2.0,70,0.00,,---,0.00,VWS V14.01,2013-03-23 09:18:00,
2013-03-23 02:23:00,41.5,32.1,30.09,North,0,0.0,2.0,69,0.00,,---,0.00,VWS V14.01,2013-03-23 09:23:00,
2013-03-23 02:28:00,41.5,32.5,30.09,North,0,0.0,2.0,70,0.00,,---,0.00,VWS V14.01,2013-03-23 09:28:00,
2013-03-23 02:33:00,41.4,32.4,30.11,North,0,0.0,3.0,70,0.00,,---,0.00,VWS V14.01,2013-03-23 09:33:00,
2013-03-23 02:38:00,41.3,32.3,30.08,North,0,0.0,3.0,70,0.00,,---,0.00,VWS V14.01,2013-03-23 09:38:00,
2013-03-23 02:44:00,41.2,32.5,30.09,North,0,0.0,3.0,71,0.00,,---,0.00,VWS V14.01,2013-03-23 09:44:00,
2013-03-23 02:49:00,41.2,32.2,30.07,NNE,14,1.0,3.0,70,0.00,,---,0.00,VWS V14.01,2013-03-23 09:49:00,
2013-03-23 02:54:00,40.9,32.2,30.08,NNE,23,4.0,5.0,71,0.00,,---,0.00,VWS V14.01,2013-03-23 09:54:00,
2013-03-23 02:59:00,40.9,31.9,30.08,NNE,26,1.0,5.0,70,0.00,,---,0.00,VWS V14.01,2013-03-23 09:59:00,
2013-03-23 03:05:00,40.7,31.7,30.08,NNE,26,1.0,1.0,70,0.00,,---,0.00,VWS V14.01,2013-03-23 10:05:00,
2013-03-23 03:10:00,40.7,31.7,30.09,NNE,26,1.0,4.0,70,0.00,,---,0.00,VWS V14.01,2013-03-23 10:10:00,
2013-03-23 03:15:00,40.6,31.6,30.07,NNE,26,0.0,4.0,70,0.00,,---,0.00,VWS V14.01,2013-03-23 10:15:00,
2013-03-23 03:20:00,40.4,31.4,30.10,NNE,26,0.0,4.0,70,0.00,,---,0.00,VWS V14.01,2013-03-23 10:20:00,
2013-03-23 03:25:00,40.3,31.3,30.09,NNE,26,0.0,4.0,70,0.00,,---,0.00,VWS V14.01,2013-03-23 10:25:00,
2013-03-23 03:30:00,40.2,31.2,30.06,NNE,26,1.0,1.0,70,0.00,,---,0.00,VWS V14.01,2013-03-23 10:30:00,
2013-03-23 03:35:00,40.0,31.4,30.09,NNE,26,0.0,2.0,71,0.00,,---,0.00,VWS V14.01,2013-03-23 10:35:00,
2013-03-23 03:40:00,40.1,31.5,30.08,NNE,26,1.0,3.0,71,0.00,,---,0.00,VWS V14.01,2013-03-23 10:40:00,
2013-03-23 03:45:00,39.9,30.9,30.07,NNE,26,0.0,3.0,70,0.00,,---,0.00,VWS V14.01,2013-03-23 10:45:00,
2013-03-23 03:51:00,39.9,30.9,30.08,NNE,26,0.0,3.0,70,0.00,,---,0.00,VWS V14.01,2013-03-23 10:51:00,
2013-03-23 03:56:00,39.9,30.9,30.06,NNE,26,0.0,3.0,70,0.00,,---,0.00,VWS V14.01,2013-03-23 10:56:00,
2013-03-23 04:01:00,39.7,30.7,30.09,NNE,26,0.0,1.0,70,0.00,,---,0.00,VWS V14.01,2013-03-23 11:01:00,
2013-03-23 04:06:00,39.6,30.6,30.09,NNE,26,1.0,2.0,70,0.00,,---,0.00,VWS V14.01,2013-03-23 11:06:00,
2013-03-23 04:11:00,39.5,30.5,30.10,NNE,26,0.0,3.0,70,0.00,,---,0.00,VWS V14.01,2013-03-23 11:11:00,
2013-03-23 04:17:00,39.3,30.4,30.06,NNE,26,0.0,3.0,70,0.00,,---,0.00,VWS V14.01,2013-03-23 11:17:00,
2013-03-23 04:22:00,39.3,30.4,30.06,NNE,26,0.0,3.0,70,0.00,,---,0.00,VWS V14.01,2013-03-23 11:22:00,
2013-03-23 04:28:00,39.1,30.2,30.05,NNE,26,0.0,3.0,70,0.00,,---,0.00,VWS V14.01,2013-03-23 11:28:00,
2013-03-23 04:33:00,39.1,30.2,30.07,NNE,26,0.0,2.0,70,0.00,,---,0.00,VWS V14.01,2013-03-23 11:33:00,
2013-03-23 04:38:00,39.0,30.1,30.08,NNE,26,0.0,2.0,70,0.00,,---,0.00,VWS V14.01,2013-03-23 11:38:00,
2013-03-23 04:43:00,39.0,30.1,30.07,NNE,27,0.0,2.0,70,0.00,,---,0.00,VWS V14.01,2013-03-23 11:43:00,
2013-03-23 04:48:00,38.9,30.0,30.08,NNE,26,0.0,2.0,70,0.00,,---,0.00,VWS V14.01,2013-03-23 11:48:00,
2013-03-23 04:53:00,38.8,29.9,30.07,NNE,26,0.0,2.0,70,0.00,,---,0.00,VWS V14.01,2013-03-23 11:53:00,
2013-03-23 04:59:00,38.6,29.7,30.09,NNE,26,0.0,2.0,70,0.00,,---,0.00,VWS V14.01,2013-03-23 11:59:00,
2013-03-23 05:04:00,38.5,29.6,30.07,NNE,26,0.0,3.0,70,0.00,,---,0.00,VWS V14.01,2013-03-23 12:04:00,
2013-03-23 05:09:00,38.5,29.6,30.07,NNE,26,0.0,3.0,70,0.00,,---,0.00,VWS V14.01,2013-03-23 12:09:00,
2013-03-23 05:14:00,38.3,29.4,30.08,NNE,26,0.0,3.0,70,0.00,,---,0.00,VWS V14.01,2013-03-23 12:14:00,
2013-03-23 05:20:00,38.3,29.4,30.10,NNE,26,0.0,3.0,70,0.00,,---,0.00,VWS V14.01,2013-03-23 12:20:00,
2013-03-23 05:25:00,38.2,29.3,30.07,NNE,26,0.0,3.0,70,0.00,,---,0.00,VWS V14.01,2013-03-23 12:25:00,
2013-03-23 05:30:00,38.2,29.3,30.09,NNE,26,0.0,2.0,70,0.00,,---,0.00,VWS V14.01,2013-03-23 12:30:00,
2013-03-23 05:35:00,38.1,29.2,30.09,NNE,26,0.0,3.0,70,0.00,,---,0.00,VWS V14.01,2013-03-23 12:35:00,
2013-03-23 05:40:00,37.9,28.6,30.09,NNE,26,0.0,3.0,69,0.00,,---,0.00,VWS V14.01,2013-03-23 12:40:00,
2013-03-23 05:45:00,37.9,29.0,30.10,NNE,26,1.0,3.0,70,0.00,,---,0.00,VWS V14.01,2013-03-23 12:45:00,
2013-03-23 05:50:00,37.9,29.0,30.10,NNE,26,0.0,3.0,70,0.00,,---,0.00,VWS V14.01,2013-03-23 12:50:00,
2013-03-23 05:55:00,37.8,28.9,30.10,NNE,26,1.0,4.0,70,0.00,,---,0.00,VWS V14.01,2013-03-23 12:55:00,
2013-03-23 06:00:00,37.8,28.9,30.09,NNE,26,1.0,1.0,70,0.00,,---,0.00,VWS V14.01,2013-03-23 13:00:00,
2013-03-23 06:05:00,37.7,28.8,30.08,NNE,26,1.0,2.0,70,0.00,,---,0.00,VWS V14.01,2013-03-23 13:05:00,
2013-03-23 06:11:00,37.7,28.5,30.10,NNE,26,0.0,3.0,69,0.00,,---,0.00,VWS V14.01,2013-03-23 13:11:00,
2013-03-23 06:16:00,37.6,28.4,30.09,NNE,26,0.0,4.0,69,0.00,,---,0.00,VWS V14.01,2013-03-23 13:16:00,
2013-03-23 06:22:00,37.6,28.4,30.10,NNE,26,0.0,4.0,69,0.00,,---,0.00,VWS V14.01,2013-03-23 13:22:00,
2013-03-23 06:27:00,37.6,28.4,30.11,NNE,26,0.0,4.0,69,0.00,,---,0.00,VWS V14.01,2013-03-23 13:27:00,
2013-03-23 06:32:00,37.6,28.4,30.10,NNE,26,0.0,2.0,69,0.00,,---,0.00,VWS V14.01,2013-03-23 13:32:00,
2013-03-23 06:37:00,37.6,28.7,30.10,NNE,26,0.0,2.0,70,0.00,,---,0.00,VWS V14.01,2013-03-23 13:37:00,
2013-03-23 06:42:00,37.6,28.4,30.10,NNE,26,0.0,2.0,69,0.00,,---,0.00,VWS V14.01,2013-03-23 13:42:00,
2013-03-23 06:47:00,37.6,28.4,30.12,NNE,26,0.0,2.0,69,0.00,,---,0.00,VWS V14.01,2013-03-23 13:47:00,
2013-03-23 06:52:00,37.6,28.4,30.11,NNE,26,1.0,2.0,69,0.00,,---,0.00,VWS V14.01,2013-03-23 13:52:00,
2013-03-23 06:58:00,37.5,28.3,30.09,NNE,26,0.0,2.0,69,0.00,,---,0.00,VWS V14.01,2013-03-23 13:58:00,
2013-03-23 07:03:00,37.3,28.1,30.12,NNE,26,0.0,1.0,69,0.00,,---,0.00,VWS V14.01,2013-03-23 14:03:00,
2013-03-23 07:08:00,37.2,28.0,30.09,NNE,26,0.0,2.0,69,0.00,,---,0.00,VWS V14.01,2013-03-23 14:08:00,
2013-03-23 07:14:00,37.1,27.5,30.09,NNE,26,0.0,3.0,68,0.00,,---,0.00,VWS V14.01,2013-03-23 14:14:00,
2013-03-23 07:19:00,37.2,28.0,30.08,NNE,26,1.0,3.0,69,0.00,,---,0.00,VWS V14.01,2013-03-23 14:19:00,
2013-03-23 07:24:00,37.2,28.0,30.10,NNE,26,0.0,3.0,69,0.00,,---,0.00,VWS V14.01,2013-03-23 14:24:00,
2013-03-23 07:29:00,37.4,27.8,30.10,NNE,26,0.0,3.0,68,0.00,,---,0.00,VWS V14.01,2013-03-23 14:29:00,
2013-03-23 07:34:00,37.3,27.7,30.12,NNE,26,0.0,2.0,68,0.00,,---,0.00,VWS V14.01,2013-03-23 14:34:00,
2013-03-23 07:39:00,37.4,28.2,30.11,NNE,26,0.0,2.0,69,0.00,,---,0.00,VWS V14.01,2013-03-23 14:39:00,
2013-03-23 07:45:00,37.6,28.4,30.12,NNE,26,0.0,2.0,69,0.00,,---,0.00,VWS V14.01,2013-03-23 14:45:00,
2013-03-23 07:50:00,37.9,29.0,30.13,NNE,26,1.0,3.0,70,0.00,,---,0.00,VWS V14.01,2013-03-23 14:50:00,
2013-03-23 07:55:00,38.0,29.1,30.12,NNE,26,0.0,3.0,70,0.00,,---,0.00,VWS V14.01,2013-03-23 14:55:00,
2013-03-23 08:00:00,38.1,29.2,30.13,NNE,26,0.0,0.0,70,0.00,,---,0.00,VWS V14.01,2013-03-23 15:00:00,
2013-03-23 08:05:00,38.5,29.2,30.13,NNE,26,0.0,1.0,69,0.00,,---,0.00,VWS V14.01,2013-03-23 15:05:00,
2013-03-23 08:11:00,39.0,29.0,30.14,NNE,26,0.0,1.0,67,0.00,,---,0.00,VWS V14.01,2013-03-23 15:11:00,
2013-03-23 08:16:00,39.4,29.4,30.15,NNE,26,0.0,1.0,67,0.00,,---,0.00,VWS V14.01,2013-03-23 15:16:00,
2013-03-23 08:21:00,39.9,29.9,30.15,NNE,26,0.0,1.0,67,0.00,,---,0.00,VWS V14.01,2013-03-23 15:21:00,
2013-03-23 08:26:00,40.3,30.2,30.14,NNE,26,0.0,1.0,67,0.00,,---,0.00,VWS V14.01,2013-03-23 15:26:00,
2013-03-23 08:31:00,40.7,30.2,30.14,NNE,26,0.0,0.0,66,0.00,,---,0.00,VWS V14.01,2013-03-23 15:31:00,
2013-03-23 08:36:00,41.2,30.3,30.14,NNE,26,0.0,0.0,65,0.00,,---,0.00,VWS V14.01,2013-03-23 15:36:00,
2013-03-23 08:41:00,41.7,30.8,30.14,NNE,26,0.0,0.0,65,0.00,,---,0.00,VWS V14.01,2013-03-23 15:41:00,
2013-03-23 08:46:00,42.2,30.9,30.13,NNE,26,1.0,3.0,64,0.00,,---,0.00,VWS V14.01,2013-03-23 15:46:00,
2013-03-23 08:51:00,42.7,31.0,30.15,NNE,26,0.0,3.0,63,0.00,,---,0.00,VWS V14.01,2013-03-23 15:51:00,
2013-03-23 08:57:00,43.5,31.0,30.12,NE,53,0.0,4.0,61,0.00,,---,0.00,VWS V14.01,2013-03-23 15:57:00,
2013-03-23 09:03:00,44.2,31.2,30.12,NE,53,1.0,2.0,60,0.00,,---,0.00,VWS V14.01,2013-03-23 16:03:00,
2013-03-23 09:08:00,45.2,31.3,30.13,NE,53,0.0,3.0,58,0.00,,---,0.00,VWS V14.01,2013-03-23 16:08:00,
2013-03-23 09:13:00,46.0,30.8,30.13,SSE,147,1.0,5.0,55,0.00,,---,0.00,VWS V14.01,2013-03-23 16:13:00,
2013-03-23 09:18:00,46.7,31.0,30.17,SSE,147,1.0,5.0,54,0.00,,---,0.00,VWS V14.01,2013-03-23 16:18:00,
2013-03-23 09:24:00,47.6,32.7,30.13,SSE,147,0.0,5.0,56,0.00,,---,0.00,VWS V14.01,2013-03-23 16:24:00,
2013-03-23 09:29:00,48.7,31.9,30.15,SSE,147,1.0,5.0,52,0.00,,---,0.00,VWS V14.01,2013-03-23 16:29:00,
2013-03-23 09:34:00,49.2,32.3,30.16,SE,139,1.0,5.0,52,0.00,,---,0.00,VWS V14.01,2013-03-23 16:34:00,
2013-03-23 09:39:00,49.7,31.8,30.13,SSE,148,1.0,5.0,50,0.00,,---,0.00,VWS V14.01,2013-03-23 16:39:00,
2013-03-23 09:44:00,50.3,32.4,30.13,SSE,148,1.0,5.0,50,0.00,,---,0.00,VWS V14.01,2013-03-23 16:44:00,
2013-03-23 09:49:00,50.9,32.4,30.14,SSE,148,1.0,5.0,49,0.00,,---,0.00,VWS V14.01,2013-03-23 16:49:00,
2013-03-23 09:54:00,51.8,33.3,30.13,SSE,148,1.0,5.0,49,0.00,,---,0.00,VWS V14.01,2013-03-23 16:54:00,
2013-03-23 09:59:00,52.9,32.7,30.14,SSE,165,1.0,5.0,46,0.00,,---,0.00,VWS V14.01,2013-03-23 16:59:00,
2013-03-23 10:04:00,53.6,32.8,30.13,South,171,3.0,5.0,45,0.00,,---,0.00,VWS V14.01,2013-03-23 17:04:00,
2013-03-23 10:09:00,54.1,32.1,30.13,South,171,0.0,5.0,43,0.00,,---,0.00,VWS V14.01,2013-03-23 17:09:00,
2013-03-23 10:15:00,54.6,31.4,30.14,South,189,3.0,5.0,41,0.00,,---,0.00,VWS V14.01,2013-03-23 17:15:00,
2013-03-23 10:20:00,54.9,30.4,30.14,South,185,3.0,6.0,39,0.00,,---,0.00,VWS V14.01,2013-03-23 17:20:00,
2013-03-23 10:25:00,55.3,32.0,30.11,South,187,0.0,6.0,41,0.00,,---,0.00,VWS V14.01,2013-03-23 17:25:00,
2013-03-23 10:30:00,56.3,32.3,30.14,South,188,2.0,4.0,40,0.00,,---,0.00,VWS V14.01,2013-03-23 17:30:00,
2013-03-23 10:35:00,56.5,32.5,30.14,SSW,194,4.0,5.0,40,0.00,,---,0.00,VWS V14.01,2013-03-23 17:35:00,
2013-03-23 10:40:00,56.7,30.7,30.12,SSW,200,4.0,7.0,37,0.00,,---,0.00,VWS V14.01,2013-03-23 17:40:00,
2013-03-23 10:45:00,56.5,30.6,30.12,SSW,200,3.0,7.0,37,0.00,,---,0.00,VWS V14.01,2013-03-23 17:45:00,
2013-03-23 10:50:00,56.7,30.7,30.11,SSW,200,4.0,7.0,37,0.00,,---,0.00,VWS V14.01,2013-03-23 17:50:00,
2013-03-23 10:55:00,56.9,29.5,30.11,SSW,200,2.0,7.0,35,0.00,,---,0.00,VWS V14.01,2013-03-23 17:55:00,
2013-03-23 11:00:00,56.7,29.4,30.12,SSW,200,3.0,3.0,35,0.00,,---,0.00,VWS V14.01,2013-03-23 18:00:00,
2013-03-23 11:05:00,56.7,28.7,30.13,SSW,200,2.0,4.0,34,0.00,,---,0.00,VWS V14.01,2013-03-23 18:05:00,
2013-03-23 11:10:00,57.0,28.9,30.14,SSW,200,3.0,5.0,34,0.00,,---,0.00,VWS V14.01,2013-03-23 18:10:00,
2013-03-23 11:15:00,57.3,28.5,30.14,SSW,194,1.0,6.0,33,0.00,,---,0.00,VWS V14.01,2013-03-23 18:15:00,
2013-03-23 11:20:00,57.3,27.7,30.12,SSW,194,2.0,6.0,32,0.00,,---,0.00,VWS V14.01,2013-03-23 18:20:00,
2013-03-23 11:25:00,57.5,29.4,30.13,SSW,194,1.0,6.0,34,0.00,,---,0.00,VWS V14.01,2013-03-23 18:25:00,
2013-03-23 11:30:00,58.0,29.8,30.11,SSW,194,1.0,4.0,34,0.00,,---,0.00,VWS V14.01,2013-03-23 18:30:00,
2013-03-23 11:36:00,58.5,29.5,30.11,SSW,194,3.0,6.0,33,0.00,,---,0.00,VWS V14.01,2013-03-23 18:36:00,
2013-03-23 11:41:00,58.8,29.8,30.13,SSW,194,0.0,6.0,33,0.00,,---,0.00,VWS V14.01,2013-03-23 18:41:00,
2013-03-23 11:46:00,59.4,28.8,30.15,SSW,194,2.0,6.0,31,0.00,,---,0.00,VWS V14.01,2013-03-23 18:46:00,
2013-03-23 11:51:00,60.0,30.1,30.14,SSW,193,2.0,8.0,32,0.00,,---,0.00,VWS V14.01,2013-03-23 18:51:00,
2013-03-23 11:57:00,60.6,28.2,30.10,SSW,193,2.0,8.0,29,0.00,,---,0.00,VWS V14.01,2013-03-23 18:57:00,
2013-03-23 12:02:00,60.8,29.2,30.11,SSW,193,2.0,3.0,30,0.00,,---,0.00,VWS V14.01,2013-03-23 19:02:00,
2013-03-23 12:07:00,61.0,28.5,30.11,SSW,193,1.0,3.0,29,0.00,,---,0.00,VWS V14.01,2013-03-23 19:07:00,
2013-03-23 12:12:00,61.4,30.5,30.13,SSW,193,1.0,3.0,31,0.00,,---,0.00,VWS V14.01,2013-03-23 19:12:00,
2013-03-23 12:17:00,62.0,30.2,30.09,SSW,193,2.0,5.0,30,0.00,,---,0.00,VWS V14.01,2013-03-23 19:17:00,
2013-03-23 12:22:00,62.6,30.8,30.11,SSW,193,1.0,5.0,30,0.00,,---,0.00,VWS V14.01,2013-03-23 19:22:00,
2013-03-23 12:27:00,63.1,31.2,30.09,SSW,193,3.0,5.0,30,0.00,,---,0.00,VWS V14.01,2013-03-23 19:27:00,
2013-03-23 12:32:00,63.1,31.2,30.11,SSW,193,1.0,4.0,30,0.00,,---,0.00,VWS V14.01,2013-03-23 19:32:00,
2013-03-23 12:37:00,63.4,30.6,30.10,South,188,2.0,7.0,29,0.00,,---,0.00,VWS V14.01,2013-03-23 19:37:00,
2013-03-23 12:42:00,64.0,30.3,30.09,South,186,3.0,7.0,28,0.00,,---,0.00,VWS V14.01,2013-03-23 19:42:00,
2013-03-23 12:47:00,64.3,30.5,30.09,NNE,12,2.0,7.0,28,0.00,,---,0.00,VWS V14.01,2013-03-23 19:47:00,
2013-03-23 12:52:00,64.4,29.7,30.09,ENE,59,2.0,7.0,27,0.00,,---,0.00,VWS V14.01,2013-03-23 19:52:00,
2013-03-23 12:58:00,64.6,29.9,30.11,ENE,59,1.0,7.0,27,0.00,,---,0.00,VWS V14.01,2013-03-23 19:58:00,
2013-03-23 13:03:00,64.6,29.9,30.11,ENE,59,3.0,3.0,27,0.00,,---,0.00,VWS V14.01,2013-03-23 20:03:00,
2013-03-23 13:08:00,64.6,29.9,30.09,ENE,59,1.0,4.0,27,0.00,,---,0.00,VWS V14.01,2013-03-23 20:08:00,
2013-03-23 13:13:00,64.6,30.8,30.08,ENE,59,1.0,4.0,28,0.00,,---,0.00,VWS V14.01,2013-03-23 20:13:00,
2013-03-23 13:18:00,64.8,30.1,30.10,ENE,59,0.0,4.0,27,0.00,,---,0.00,VWS V14.01,2013-03-23 20:18:00,
2013-03-23 13:23:00,65.0,30.2,30.09,ENE,59,2.0,6.0,27,0.00,,---,0.00,VWS V14.01,2013-03-23 20:23:00,
2013-03-23 13:28:00,65.1,27.4,30.07,SSW,207,2.0,6.0,24,0.00,,---,0.00,VWS V14.01,2013-03-23 20:28:00,
2013-03-23 13:33:00,65.6,30.8,30.10,SSW,207,2.0,5.0,27,0.00,,---,0.00,VWS V14.01,2013-03-23 20:33:00,
2013-03-23 13:38:00,66.1,29.3,30.09,North,351,3.0,8.0,25,0.00,,---,0.00,VWS V14.01,2013-03-23 20:38:00,
2013-03-23 13:43:00,66.2,28.4,30.09,SW,235,3.0,8.0,24,0.00,,---,0.00,VWS V14.01,2013-03-23 20:43:00,
2013-03-23 13:48:00,66.2,29.4,30.08,South,187,3.0,8.0,25,0.00,,---,0.00,VWS V14.01,2013-03-23 20:48:00,
2013-03-23 13:53:00,66.2,28.4,30.09,South,187,2.0,8.0,24,0.00,,---,0.00,VWS V14.01,2013-03-23 20:53:00,
2013-03-23 13:59:00,66.3,30.4,30.08,NNW,340,4.0,8.0,26,0.00,,---,0.00,VWS V14.01,2013-03-23 20:59:00,
2013-03-23 14:04:00,66.1,28.3,30.06,North,0,1.0,7.0,24,0.00,,---,0.00,VWS V14.01,2013-03-23 21:04:00,
2013-03-23 14:09:00,66.0,29.2,30.07,North,0,1.0,7.0,25,0.00,,---,0.00,VWS V14.01,2013-03-23 21:09:00,
2013-03-23 14:14:00,66.6,31.6,30.07,SSW,213,0.0,7.0,27,0.00,,---,0.00,VWS V14.01,2013-03-23 21:14:00,
2013-03-23 14:19:00,66.8,29.9,30.06,NNW,334,5.0,7.0,25,0.00,,---,0.00,VWS V14.01,2013-03-23 21:19:00,
2013-03-23 14:24:00,66.9,30.9,30.07,West,273,0.0,7.0,26,0.00,,---,0.00,VWS V14.01,2013-03-23 21:24:00,
2013-03-23 14:29:00,66.9,30.9,30.07,WNW,284,2.0,7.0,26,0.00,,---,0.00,VWS V14.01,2013-03-23 21:29:00,
2013-03-23 14:34:00,67.1,30.1,30.06,NW,316,1.0,5.0,25,0.00,,---,0.00,VWS V14.01,2013-03-23 21:34:00,
2013-03-23 14:39:00,66.9,30.0,30.05,NW,321,4.0,5.0,25,0.00,,---,0.00,VWS V14.01,2013-03-23 21:39:00,
2013-03-23 14:44:00,66.7,29.8,30.08,North,357,1.0,6.0,25,0.00,,---,0.00,VWS V14.01,2013-03-23 21:44:00,
2013-03-23 14:49:00,66.9,30.0,30.05,NNW,344,0.0,6.0,25,0.00,,---,0.00,VWS V14.01,2013-03-23 21:49:00,
2013-03-23 14:54:00,67.2,30.2,30.07,NNW,339,3.0,7.0,25,0.00,,---,0.00,VWS V14.01,2013-03-23 21:54:00,
2013-03-23 14:59:00,67.2,31.2,30.05,NNW,346,2.0,7.0,26,0.00,,---,0.00,VWS V14.01,2013-03-23 21:59:00,
2013-03-23 15:04:00,67.4,29.4,30.05,NW,317,3.0,4.0,24,0.00,,---,0.00,VWS V14.01,2013-03-23 22:04:00,
2013-03-23 15:09:00,67.4,30.4,30.05,NNW,336,1.0,7.0,25,0.00,,---,0.00,VWS V14.01,2013-03-23 22:09:00,
2013-03-23 15:15:00,67.2,31.2,30.05,West,261,3.0,7.0,26,0.00,,---,0.00,VWS V14.01,2013-03-23 22:15:00,
2013-03-23 15:20:00,67.4,29.4,30.04,WSW,257,2.0,7.0,24,0.00,,---,0.00,VWS V14.01,2013-03-23 22:20:00,
2013-03-23 15:25:00,67.1,29.1,30.08,WSW,257,5.0,7.0,24,0.00,,---,0.00,VWS V14.01,2013-03-23 22:25:00,
2013-03-23 15:30:00,67.4,30.4,30.06,WSW,257,0.0,2.0,25,0.00,,---,0.00,VWS V14.01,2013-03-23 22:30:00,
2013-03-23 15:35:00,67.5,29.5,30.04,NNE,18,1.0,7.0,24,0.00,,---,0.00,VWS V14.01,2013-03-23 22:35:00,
2013-03-23 15:40:00,67.7,29.6,30.06,North,7,2.0,7.0,24,0.00,,---,0.00,VWS V14.01,2013-03-23 22:40:00,
2013-03-23 15:45:00,68.4,32.2,30.05,North,7,0.0,7.0,26,0.00,,---,0.00,VWS V14.01,2013-03-23 22:45:00,
2013-03-23 15:50:00,68.7,30.5,30.05,North,7,1.0,7.0,24,0.00,,---,0.00,VWS V14.01,2013-03-23 22:50:00,
2013-03-23 15:55:00,68.8,30.6,30.04,North,7,3.0,7.0,24,0.00,,---,0.00,VWS V14.01,2013-03-23 22:55:00,
2013-03-23 16:00:00,68.9,30.6,30.05,North,7,3.0,3.0,24,0.00,,---,0.00,VWS V14.01,2013-03-23 23:00:00,
2013-03-23 16:05:00,69.3,31.0,30.05,WSW,252,1.0,4.0,24,0.00,,---,0.00,VWS V14.01,2013-03-23 23:05:00,
2013-03-23 16:10:00,70.2,31.8,30.02,WSW,252,2.0,5.0,24,0.00,,---,0.00,VWS V14.01,2013-03-23 23:10:00,
2013-03-23 16:15:00,70.3,31.8,30.05,WSW,252,1.0,5.0,24,0.00,,---,0.00,VWS V14.01,2013-03-23 23:15:00,
2013-03-23 16:20:00,70.2,31.8,30.05,NNW,339,3.0,5.0,24,0.00,,---,0.00,VWS V14.01,2013-03-23 23:20:00,
2013-03-23 16:25:00,70.1,31.7,30.04,NNW,341,0.0,5.0,24,0.00,,---,0.00,VWS V14.01,2013-03-23 23:25:00,
2013-03-23 16:30:00,70.0,31.6,30.02,North,350,3.0,3.0,24,0.00,,---,0.00,VWS V14.01,2013-03-23 23:30:00,
2013-03-23 16:35:00,70.0,30.5,30.04,North,349,1.0,5.0,23,0.00,,---,0.00,VWS V14.01,2013-03-23 23:35:00,
2013-03-23 16:40:00,70.2,31.8,30.01,NNW,347,0.0,5.0,24,0.00,,---,0.00,VWS V14.01,2013-03-23 23:40:00,
2013-03-23 16:45:00,70.1,31.7,30.05,NNW,347,1.0,5.0,24,0.00,,---,0.00,VWS V14.01,2013-03-23 23:45:00,
2013-03-23 16:50:00,70.4,30.9,30.07,NNW,347,2.0,5.0,23,0.00,,---,0.00,VWS V14.01,2013-03-23 23:50:00,
2013-03-23 16:55:00,70.7,32.2,30.02,NNW,347,2.0,5.0,24,0.00,,---,0.00,VWS V14.01,2013-03-23 23:55:00,
2013-03-23 17:00:00,70.9,33.4,30.05,NNW,347,0.0,3.0,25,0.00,,---,0.00,VWS V14.01,2013-03-24 00:00:00,
2013-03-23 17:05:00,71.0,32.4,30.04,NNW,347,2.0,3.0,24,0.00,,---,0.00,VWS V14.01,2013-03-24 00:05:00,
2013-03-23 17:10:00,71.3,35.6,30.06,NW,324,4.0,5.0,27,0.00,,---,0.00,VWS V14.01,2013-03-24 00:10:00,
2013-03-23 17:15:00,72.0,37.1,30.01,SW,232,3.0,8.0,28,0.00,,---,0.00,VWS V14.01,2013-03-24 00:15:00,
2013-03-23 17:20:00,72.3,37.4,30.06,SW,232,6.0,9.0,28,0.00,,---,0.00,VWS V14.01,2013-03-24 00:20:00,
2013-03-23 17:25:00,72.0,38.0,30.04,NW,310,2.0,11.0,29,0.00,,---,0.00,VWS V14.01,2013-03-24 00:25:00,
2013-03-23 17:31:00,71.9,38.0,30.02,WNW,300,6.0,6.0,29,0.00,,---,0.00,VWS V14.01,2013-03-24 00:31:00,
2013-03-23 17:36:00,71.2,37.3,30.04,WNW,303,1.0,6.0,29,0.00,,---,0.00,VWS V14.01,2013-03-24 00:36:00,
2013-03-23 18:03:00,69.6,39.2,30.06,SW,231,3.0,5.0,33,0.00,,---,0.00,VWS V14.01,2013-03-24 01:03:00,
2013-03-23 18:08:00,68.8,38.5,30.03,WSW,258,2.0,6.0,33,0.00,,---,0.00,VWS V14.01,2013-03-24 01:08:00,
2013-03-23 18:13:00,67.9,38.5,30.03,SW,226,2.0,7.0,34,0.00,,---,0.00,VWS V14.01,2013-03-24 01:13:00,
2013-03-23 18:18:00,67.1,38.6,30.01,SSW,211,2.0,7.0,35,0.00,,---,0.00,VWS V14.01,2013-03-24 01:18:00,
2013-03-23 18:23:00,67.0,38.5,30.01,West,269,3.0,7.0,35,0.00,,---,0.00,VWS V14.01,2013-03-24 01:23:00,
2013-03-23 18:28:00,66.4,37.9,30.04,SW,228,3.0,7.0,35,0.00,,---,0.00,VWS V14.01,2013-03-24 01:28:00,
2013-03-23 18:33:00,65.5,38.6,30.04,West,265,4.0,6.0,37,0.00,,---,0.00,VWS V14.01,2013-03-24 01:33:00,
2013-03-23 18:38:00,65.0,38.1,30.06,West,259,2.0,6.0,37,0.00,,---,0.00,VWS V14.01,2013-03-24 01:38:00,
2013-03-23 18:43:00,64.3,38.2,30.03,NNW,334,1.0,7.0,38,0.00,,---,0.00,VWS V14.01,2013-03-24 01:43:00,
2013-03-23 18:48:00,63.7,37.6,30.06,SW,214,2.0,8.0,38,0.00,,---,0.00,VWS V14.01,2013-03-24 01:48:00,
2013-03-23 18:53:00,63.0,37.0,30.03,WNW,296,3.0,8.0,38,0.00,,---,0.00,VWS V14.01,2013-03-24 01:53:00,
2013-03-23 18:58:00,62.4,37.1,30.07,WNW,285,2.0,9.0,39,0.00,,---,0.00,VWS V14.01,2013-03-24 01:58:00,
2013-03-23 19:03:00,61.8,36.6,30.05,SSW,210,4.0,7.0,39,0.00,,---,0.00,VWS V14.01,2013-03-24 02:03:00,
2013-03-23 19:08:00,61.4,36.9,30.08,SSW,204,3.0,7.0,40,0.00,,---,0.00,VWS V14.01,2013-03-24 02:08:00,
2013-03-23 19:13:00,60.9,36.4,30.02,SSW,206,2.0,7.0,40,0.00,,---,0.00,VWS V14.01,2013-03-24 02:13:00,
2013-03-23 19:19:00,60.4,36.0,30.04,SSW,209,2.0,8.0,40,0.00,,---,0.00,VWS V14.01,2013-03-24 02:19:00,
2013-03-23 19:24:00,60.2,35.8,30.05,SSW,209,4.0,8.0,40,0.00,,---,0.00,VWS V14.01,2013-03-24 02:24:00,
2013-03-23 19:29:00,59.9,34.9,30.03,SSW,209,2.0,8.0,39,0.00,,---,0.00,VWS V14.01,2013-03-24 02:29:00,
2013-03-23 19:34:00,59.4,35.1,30.05,SSW,211,2.0,4.0,40,0.00,,---,0.00,VWS V14.01,2013-03-24 02:34:00,
2013-03-23 19:39:00,59.2,33.6,30.06,SW,216,2.0,5.0,38,0.00,,---,0.00,VWS V14.01,2013-03-24 02:39:00,
2013-03-23 19:44:00,58.9,34.6,30.04,SW,225,3.0,5.0,40,0.00,,---,0.00,VWS V14.01,2013-03-24 02:44:00,
2013-03-23 19:49:00,58.6,34.4,30.04,SW,225,2.0,5.0,40,0.00,,---,0.00,VWS V14.01,2013-03-24 02:49:00,
2013-03-23 19:54:00,58.4,34.8,30.05,SW,225,0.0,5.0,41,0.00,,---,0.00,VWS V14.01,2013-03-24 02:54:00,
2013-03-23 19:59:00,58.0,34.5,30.06,WNW,286,2.0,5.0,41,0.00,,---,0.00,VWS V14.01,2013-03-24 02:59:00,
2013-03-23 20:04:00,57.7,34.2,30.06,North,359,2.0,7.0,41,0.00,,---,0.00,VWS V14.01,2013-03-24 03:04:00,
2013-03-23 20:09:00,57.5,34.0,30.05,North,359,0.0,7.0,41,0.00,,---,0.00,VWS V14.01,2013-03-24 03:09:00,
2013-03-23 20:14:00,57.0,32.9,30.05,North,359,2.0,7.0,40,0.00,,---,0.00,VWS V14.01,2013-03-24 03:14:00,
2013-03-23 20:19:00,56.8,33.4,30.06,North,359,3.0,7.0,41,0.00,,---,0.00,VWS V14.01,2013-03-24 03:19:00,
2013-03-23 20:24:00,56.5,33.1,30.07,North,359,2.0,7.0,41,0.00,,---,0.00,VWS V14.01,2013-03-24 03:24:00,
2013-03-23 20:29:00,56.4,33.0,30.06,North,359,2.0,7.0,41,0.00,,---,0.00,VWS V14.01,2013-03-24 03:29:00,
2013-03-23 20:35:00,56.2,32.8,30.05,North,359,2.0,5.0,41,0.00,,---,0.00,VWS V14.01,2013-03-24 03:35:00,
2013-03-23 20:40:00,56.0,32.7,30.05,North,354,2.0,6.0,41,0.00,,---,0.00,VWS V14.01,2013-03-24 03:40:00,
2013-03-23 20:45:00,55.7,32.4,30.05,North,354,2.0,6.0,41,0.00,,---,0.00,VWS V14.01,2013-03-24 03:45:00,
2013-03-23 20:50:00,55.5,32.8,30.07,North,355,1.0,6.0,42,0.00,,---,0.00,VWS V14.01,2013-03-24 03:50:00,
2013-03-23 20:55:00,55.2,32.5,30.05,North,354,2.0,6.0,42,0.00,,---,0.00,VWS V14.01,2013-03-24 03:55:00,
2013-03-23 21:00:00,55.0,31.8,30.05,North,354,2.0,3.0,41,0.00,,---,0.00,VWS V14.01,2013-03-24 04:00:00,
2013-03-23 21:06:00,54.9,32.8,30.08,North,354,2.0,3.0,43,0.00,,---,0.00,VWS V14.01,2013-03-24 04:06:00,
2013-03-23 21:11:00,54.6,32.6,30.06,North,354,3.0,5.0,43,0.00,,---,0.00,VWS V14.01,2013-03-24 04:11:00,
2013-03-23 21:16:00,54.5,32.5,30.06,North,354,1.0,5.0,43,0.00,,---,0.00,VWS V14.01,2013-03-24 04:16:00,
2013-03-23 21:21:00,54.4,32.4,30.06,North,354,3.0,5.0,43,0.00,,---,0.00,VWS V14.01,2013-03-24 04:21:00,
2013-03-23 21:26:00,54.4,32.4,30.09,North,354,0.0,5.0,43,0.00,,---,0.00,VWS V14.01,2013-03-24 04:26:00,
2013-03-23 21:31:00,54.2,32.8,30.07,North,354,0.0,3.0,44,0.00,,---,0.00,VWS V14.01,2013-03-24 04:31:00,
2013-03-23 21:36:00,54.0,32.6,30.09,North,354,0.0,3.0,44,0.00,,---,0.00,VWS V14.01,2013-03-24 04:36:00,
2013-03-23 21:41:00,54.0,33.2,30.09,North,354,0.0,3.0,45,0.00,,---,0.00,VWS V14.01,2013-03-24 04:41:00,
2013-03-23 21:47:00,53.8,34.1,30.05,North,354,2.0,3.0,47,0.00,,---,0.00,VWS V14.01,2013-03-24 04:47:00,
2013-03-23 21:52:00,53.5,33.8,30.08,North,354,0.0,3.0,47,0.00,,---,0.00,VWS V14.01,2013-03-24 04:52:00,
2013-03-23 21:57:00,53.2,33.5,30.08,North,354,1.0,3.0,47,0.00,,---,0.00,VWS V14.01,2013-03-24 04:57:00,
2013-03-23 22:02:00,52.9,33.8,30.07,North,354,1.0,3.0,48,0.00,,---,0.00,VWS V14.01,2013-03-24 05:02:00,
2013-03-23 22:07:00,52.5,33.9,30.09,North,354,1.0,3.0,49,0.00,,---,0.00,VWS V14.01,2013-03-24 05:07:00,
2013-03-23 22:12:00,52.1,34.0,30.06,North,354,0.0,3.0,50,0.00,,---,0.00,VWS V14.01,2013-03-24 05:12:00,
2013-03-23 22:17:00,51.7,33.7,30.07,North,354,0.0,3.0,50,0.00,,---,0.00,VWS V14.01,2013-03-24 05:17:00,
2013-03-23 22:22:00,51.4,33.9,30.09,North,354,1.0,3.0,51,0.00,,---,0.00,VWS V14.01,2013-03-24 05:22:00,
2013-03-23 22:27:00,51.0,34.0,30.09,North,354,1.0,3.0,52,0.00,,---,0.00,VWS V14.01,2013-03-24 05:27:00,
2013-03-23 22:32:00,50.7,33.7,30.07,North,354,2.0,3.0,52,0.00,,---,0.00,VWS V14.01,2013-03-24 05:32:00,
2013-03-23 22:37:00,50.2,34.2,30.07,North,354,0.0,3.0,54,0.00,,---,0.00,VWS V14.01,2013-03-24 05:37:00,
2013-03-23 22:42:00,50.1,34.1,30.08,North,354,0.0,4.0,54,0.00,,---,0.00,VWS V14.01,2013-03-24 05:42:00,
2013-03-23 22:47:00,49.9,34.4,30.08,North,354,1.0,4.0,55,0.00,,---,0.00,VWS V14.01,2013-03-24 05:47:00,
2013-03-23 22:52:00,49.8,34.8,30.08,North,354,1.0,4.0,56,0.00,,---,0.00,VWS V14.01,2013-03-24 05:52:00,
2013-03-23 22:57:00,49.6,35.0,30.09,North,354,1.0,4.0,57,0.00,,---,0.00,VWS V14.01,2013-03-24 05:57:00,
2013-03-23 23:03:00,49.6,34.6,30.08,North,354,0.0,2.0,56,0.00,,---,0.00,VWS V14.01,2013-03-24 06:03:00,
2013-03-23 23:08:00,49.6,34.6,30.07,North,354,1.0,3.0,56,0.00,,---,0.00,VWS V14.01,2013-03-24 06:08:00,
2013-03-23 23:13:00,49.3,34.3,30.08,North,354,1.0,3.0,56,0.00,,---,0.00,VWS V14.01,2013-03-24 06:13:00,
2013-03-23 23:18:00,49.3,34.7,30.08,North,354,1.0,3.0,57,0.00,,---,0.00,VWS V14.01,2013-03-24 06:18:00,
2013-03-23 23:23:00,49.0,34.9,30.08,North,354,2.0,3.0,58,0.00,,---,0.00,VWS V14.01,2013-03-24 06:23:00,
2013-03-23 23:28:00,48.6,34.5,30.06,North,354,1.0,3.0,58,0.00,,---,0.00,VWS V14.01,2013-03-24 06:28:00,
2013-03-23 23:33:00,48.4,33.9,30.09,North,354,0.0,3.0,57,0.00,,---,0.00,VWS V14.01,2013-03-24 06:33:00,
2013-03-23 23:38:00,48.0,34.4,30.07,North,354,0.0,3.0,59,0.00,,---,0.00,VWS V14.01,2013-03-24 06:38:00,
2013-03-23 23:43:00,47.7,34.5,30.09,North,354,0.0,3.0,60,0.00,,---,0.00,VWS V14.01,2013-03-24 06:43:00,
2013-03-23 23:48:00,47.4,34.2,30.10,North,354,0.0,3.0,60,0.00,,---,0.00,VWS V14.01,2013-03-24 06:48:00,
2013-03-23 23:53:00,47.3,34.5,30.09,North,354,0.0,3.0,61,0.00,,---,0.00,VWS V14.01,2013-03-24 06:53:00,
2013-03-23 23:58:00,47.1,34.8,30.10,North,354,0.0,3.0,62,0.00,,---,0.00,VWS V14.01,2013-03-24 06:58:00,